Weather History for LELL - April, 2013

Change the Weather History Date:

Wednesday, April 10, 2013

  Actual Average (LEBL) Record (LEBL)
Temperature  
Mean Temperature 58 °F -  
Max Temperature 69 °F 60 °F 75 °F (2011)
Min Temperature 48 °F 48 °F 42 °F (1998)
Degree Days  
Heating Degree Days 6    
Growing Degree Days 8 (Base 50)    
Moisture  
Dew Point 47 °F    
Average Humidity 56    
Maximum Humidity 87    
Minimum Humidity 38    
Precipitation  
Precipitation 0.00 in - - ()
Sea Level Pressure  
Sea Level Pressure 29.97 in    
Wind  
Wind Speed 4 mph ()    
Max Wind Speed 15 mph    
Max Gust Speed 25 mph    
Visibility 6.2 miles    
Events      
Averages and records for this station are not official NWS values.
T = Trace of Precipitation, MM = Missing Value Source: Averaged Metar Reports

Daily Weather History Graph

Daily Weather History Graph

Search for Another Location

Airport or City:

Trip Planner

Search our weather history database for the weather conditions in past years. The results will help you decide how hot, cold, wet, or windy it might be!

Date:

Astronomy

Apr. 10, 2013 Rise Set
Actual Time 7:19 AM CEST 8:26 PM CEST
Civil Twilight 6:51 AM CEST 8:55 PM CEST
Nautical Twilight 6:17 AM CEST 9:29 PM CEST
Astronomical Twilight 5:41 AM CEST 10:04 PM CEST
Moon 7:06 AM CEST (4/10) 8:47 PM CEST (4/10)
Length of Visible Light 14h 03m
Length of Day
13h 06m
New Moon, 0% of the Moon is Illuminated
Apr 10
New Moon
Apr 18
First Quarter
Apr 25
Full
May 2
Last Quarter
May 10
New

Hourly Weather History & Observations

Time (CEST) Temp. Dew Point Humidity Pressure Visibility Wind Dir Wind Speed Gust Speed Precip Events Conditions
8:00 AM 48.2 °F 44.6 °F 87% 30.01 in - WNW 1.2 mph - N/A   Clear
8:30 AM 51.8 °F 46.4 °F 82% 30.01 in 6.2 mi Calm Calm - N/A   Partly Cloudy
9:00 AM 55.4 °F 48.2 °F 77% 30.01 in 6.2 mi Calm Calm - N/A   Partly Cloudy
10:00 AM 57.2 °F 48.2 °F 72% 30.01 in 6.2 mi Calm Calm - N/A   Mostly Cloudy
10:30 AM 57.2 °F 46.4 °F 67% 30.01 in 6.2 mi Calm Calm - N/A   Mostly Cloudy
11:00 AM 59.0 °F 46.4 °F 63% 30.01 in 6.2 mi Calm Calm - N/A   Scattered Clouds
11:30 AM 60.8 °F 46.4 °F 59% 30.01 in 6.2 mi ESE 1.2 mph - N/A   Scattered Clouds
12:00 PM 62.6 °F 50.0 °F 63% 30.01 in 6.2 mi ESE 5.8 mph - N/A   Partly Cloudy
12:30 PM 64.4 °F 46.4 °F 52% 30.01 in 6.2 mi South 4.6 mph - N/A   Partly Cloudy
1:00 PM 66.2 °F 48.2 °F 52% 29.98 in 6.2 mi South 9.2 mph - N/A   Scattered Clouds
2:00 PM 62.6 °F 48.2 °F 59% - 6.2 mi ESE 11.5 mph - N/A   Mostly Cloudy
2:30 PM 66.2 °F 48.2 °F 52% 29.95 in 6.2 mi ESE 5.8 mph - N/A   Scattered Clouds
3:00 PM 68.0 °F 48.2 °F 49% 29.95 in 6.2 mi SSW 3.5 mph - N/A   Scattered Clouds
3:30 PM 69.8 °F 44.6 °F 40% 29.95 in 6.2 mi WSW 6.9 mph 19.6 mph N/A   Scattered Clouds
4:00 PM 69.8 °F 48.2 °F 46% 29.92 in 6.2 mi SSW 6.9 mph - N/A   Scattered Clouds
4:30 PM 68.0 °F 46.4 °F 46% 29.92 in 6.2 mi SW 6.9 mph - N/A   Partly Cloudy
5:00 PM 69.8 °F 44.6 °F 40% 29.92 in 6.2 mi West 15.0 mph - N/A   Partly Cloudy
5:30 PM 69.8 °F 42.8 °F 38% 29.92 in 6.2 mi West 15.0 mph - N/A   Partly Cloudy
6:30 PM 69.8 °F 46.4 °F 43% 29.92 in 6.2 mi WSW 10.4 mph - N/A   Partly Cloudy
7:00 PM 68.0 °F 46.4 °F 46% 29.92 in 6.2 mi SW 13.8 mph 25.3 mph N/A   Partly Cloudy
7:30 PM 66.2 °F 46.4 °F 49% 29.92 in - SW 11.5 mph - N/A   Clear
8:00 PM 64.4 °F 46.4 °F 52% 29.95 in - SW 9.2 mph - N/A   Clear